GFSFLT2_sfc_rhum_243.txt.gz
RH
90 88 95 96 96 96 96 95 95 96 96 96 95 94 93 92 91 90 88 86 83 81 78 78 78 78 78 75 73 79 77 63
98 87 88 94 97 96 96 96 96 96 96 96 95 94 94 93 92 90 87 85 82 80 78 78 77 75 74 73 78 80 69 62
96 95 88 88 97 94 96 95 95 96 96 96 98 97 96 96 93 90 87 84 82 80 78 78 78 77 78 82 83 73 65 76
89 96 97 97 85 94 97 92 93 94 96 96 95 97 97 85 92 90 86 84 83 81 80 79 80 81 79 84 84 67 63 81
80 87 94 92 91 97 94 94 94 95 96 94 92 85 89 93 98 94 96 88 90 86 87 87 82 80 74 74 70 65 63 80
71 76 85 83 92 90 88 86 88 91 91 91 95 90 89 92 90 94 96 94 92 90 90 84 82 74 72 70 65 62 65 84
66 69 75 75 84 80 80 80 83 85 88 85 87 92 82 83 87 86 86 88 85 87 86 88 81 76 70 63 63 62 58 82
62 68 70 68 74 71 73 75 80 82 81 84 84 90 79 76 83 77 77 77 77 80 78 77 75 70 66 63 65 60 56 67
60 67 68 67 75 68 69 73 73 76 78 84 80 82 87 76 79 71 68 72 71 68 80 74 74 72 70 73 68 62 60 55
59 59 69 69 66 68 65 68 70 72 76 81 77 76 86 79 76 82 74 76 75 72 79 76 79 81 83 78 73 71 64 64
58 61 70 70 64 76 64 71 75 67 87 79 79 80 83 81 79 81 73 77 77 74 77 77 87 84 82 78 83 80 78 67
55 61 71 71 69 73 73 71 80 81 88 86 89 88 86 88 83 81 75 76 78 79 81 89 84 83 70 72 84 93 83 79
56 59 73 72 74 70 80 71 87 84 85 87 88 88 90 92 86 82 81 75 76 81 83 82 91 87 90 89 90 84 89 90
57 56 66 67 67 65 65 69 80 82 82 85 86 88 83 89 89 83 81 79 80 90 89 93 92 93 91 95 90 85 89 93
57 55 60 65 64 65 76 75 83 80 83 79 83 85 85 79 85 86 84 77 84 93 93 89 93 95 92 92 95 92 90 93
54 55 59 63 66 68 68 69 73 71 68 75 73 84 83 80 80 80 88 87 92 94 94 93 94 96 96 92 92 91 90 74
53 57 60 63 68 68 69 69 66 66 69 72 74 84 79 80 81 85 90 91 93 94 94 94 96 97 96 96 92 93 88 79
56 62 64 65 71 69 72 68 68 68 71 73 76 84 82 85 83 80 79 95 94 96 97 96 97 96 96 92 88 83 76 87
57 63 69 69 73 71 71 70 64 64 68 69 75 83 86 87 81 84 88 96 96 97 97 97 96 97 95 83 77 73 71 71
55 60 65 68 73 74 68 67 63 62 65 67 73 80 81 82 80 93 97 96 96 96 98 98 97 93 88 79 76 78 73 72

GFSFLT2_sfc_rhum_246.txt.gz
RH
85 92 94 95 96 96 96 96 96 96 96 96 95 93 92 92 91 90 89 87 85 82 79 76 76 76 74 73 80 82 67 76
83 84 95 96 96 97 97 97 97 97 97 96 95 94 94 92 92 90 87 84 82 81 78 76 76 77 76 76 83 81 68 66
82 80 86 93 95 95 96 96 96 97 97 96 97 97 96 94 94 90 86 84 82 80 78 76 76 80 80 84 86 76 66 87
85 82 82 82 84 93 96 93 95 96 97 97 98 98 98 93 93 90 86 84 82 80 78 78 81 84 84 83 79 72 69 86
89 85 85 83 81 88 92 96 98 98 98 98 98 96 98 98 99 96 96 88 92 86 86 88 84 82 76 80 74 72 71 87
96 90 87 91 83 87 88 96 97 98 98 97 98 99 99 99 99 98 97 97 94 93 93 87 85 78 76 75 75 74 77 91
92 97 97 98 91 93 96 94 94 94 97 95 94 95 96 98 98 98 97 97 93 92 89 89 85 81 80 78 72 68 71 88
83 92 92 95 95 94 91 89 90 94 93 89 92 92 88 90 94 92 95 94 92 93 89 89 90 88 78 69 65 68 64 85
76 82 84 89 89 87 85 84 85 88 88 90 84 90 87 87 89 90 86 87 89 89 93 91 90 84 75 72 69 63 61 68
70 67 76 79 80 79 77 78 83 82 84 88 84 82 89 82 87 85 81 84 85 85 90 92 86 86 83 78 74 72 65 63
69 68 73 72 78 74 75 76 78 78 82 84 84 82 82 81 78 83 82 80 83 83 88 91 94 93 80 80 83 86 82 77
64 69 72 70 78 75 75 76 75 76 80 80 84 82 82 87 75 78 80 83 86 87 84 91 88 90 73 82 86 95 95 93
64 69 73 74 72 85 78 81 79 78 80 79 82 81 84 86 81 80 84 78 83 84 86 88 93 94 91 89 90 94 91 96
62 65 72 70 68 70 75 72 80 79 84 86 82 82 85 83 84 85 85 84 84 90 90 95 95 95 92 96 93 93 91 96
61 64 73 70 66 65 83 88 94 97 94 90 88 85 86 79 91 86 89 82 84 93 94 91 96 96 91 92 96 94 90 93
58 60 72 71 69 66 70 76 81 77 81 81 84 86 84 85 88 89 85 86 91 90 96 94 94 97 97 96 92 90 89 91
58 58 66 69 71 68 68 71 70 72 75 87 87 90 87 84 86 89 90 90 90 90 96 94 94 96 96 98 95 95 91 80
57 60 60 67 70 71 71 68 70 74 78 87 86 88 89 90 87 85 83 89 90 89 92 93 95 96 96 96 94 90 92 94
56 61 62 65 71 72 73 69 69 72 77 78 86 87 91 88 88 88 85 86 89 92 94 94 96 96 95 93 84 80 81 80
57 62 63 66 72 73 73 70 70 70 74 76 77 82 87 85 88 85 84 87 94 94 96 96 96 97 96 78 85 74 72 70

GFSFLT2_sfc_rhum_249.txt.gz
RH
94 94 94 94 95 96 96 96 96 96 96 96 95 94 94 93 94 93 92 90 88 85 82 77 73 75 73 81 83 77 83 83
90 96 95 96 96 97 97 97 97 96 97 96 95 94 94 93 93 91 89 87 84 81 78 75 74 74 76 82 86 76 69 74
81 94 96 97 96 96 96 96 96 97 97 96 96 97 96 95 94 89 86 84 82 80 78 76 76 80 82 85 83 76 70 89
82 94 87 91 90 96 96 94 96 96 97 97 98 98 98 94 94 90 85 84 82 80 79 78 81 85 85 84 79 72 76 89
79 79 89 90 88 89 91 94 96 98 98 98 99 98 99 99 99 97 96 88 94 88 88 89 84 84 79 84 78 76 84 92
78 76 75 77 84 84 82 86 87 90 97 99 99 99 100 99 99 98 97 97 94 94 93 88 86 79 78 79 81 77 79 95
79 77 80 77 82 80 82 85 88 90 98 98 98 98 99 99 99 98 97 97 95 95 91 89 85 80 79 81 79 74 83 94
82 80 80 79 81 79 82 93 94 98 98 97 96 96 98 98 99 98 98 97 96 90 87 86 89 88 85 82 79 74 78 92
95 86 82 85 83 81 87 94 94 96 96 96 92 95 96 96 98 98 97 97 94 94 93 93 95 91 90 85 72 67 60 80
87 86 96 96 95 95 92 90 92 92 93 93 90 92 91 96 95 95 95 97 97 93 95 96 96 96 94 82 79 74 66 61
81 81 91 94 94 92 90 89 90 89 91 90 89 88 92 90 90 91 95 93 95 92 95 94 96 96 93 90 85 86 82 82
74 74 81 84 89 87 87 88 89 86 87 87 89 84 88 91 88 91 92 93 93 96 93 95 95 94 84 86 86 92 97 96
73 74 76 79 86 87 87 90 87 87 82 84 87 85 86 91 88 86 90 87 88 91 94 94 95 95 96 93 90 92 95 97
70 72 74 73 72 72 72 76 80 78 82 84 85 87 88 85 85 88 86 88 92 94 92 96 95 97 95 95 93 91 95 96
68 71 73 71 68 70 86 88 95 94 87 89 85 86 86 84 83 83 89 82 86 93 92 91 96 97 92 93 96 95 96 92
61 66 72 70 69 75 77 82 84 81 82 86 85 85 86 87 86 82 87 85 90 88 92 94 94 97 97 96 92 92 95 96
58 64 71 71 70 71 78 80 73 78 81 90 91 90 87 87 85 89 86 90 88 90 94 94 95 96 96 98 95 97 93 94
60 62 68 73 71 70 76 78 77 81 87 92 92 94 92 91 89 86 85 89 89 89 89 92 92 95 96 96 96 96 97 91
57 64 68 75 76 72 71 72 75 78 82 89 90 93 93 92 92 91 88 87 88 84 90 90 93 93 92 91 95 94 94 89
52 65 66 74 78 77 71 69 71 73 78 79 84 86 87 85 90 87 88 89 89 90 89 91 94 94 94 96 96 91 86 88

GFSFLT2_sfc_rhum_252.txt.gz
RH
96 95 94 94 96 95 96 95 95 95 96 96 95 95 95 95 95 94 93 91 88 86 84 78 74 76 79 82 82 84 82 85
97 97 96 96 96 97 97 97 97 96 96 96 95 95 95 94 94 93 90 88 86 83 78 74 74 78 81 82 80 76 82 82
96 90 97 97 97 96 96 96 96 97 96 96 96 98 97 96 94 90 88 85 82 78 76 74 74 80 82 85 79 72 78 82
91 85 94 95 92 97 97 94 97 97 98 97 98 98 98 95 93 88 85 83 80 78 77 76 79 82 86 81 76 74 79 85
82 81 97 96 93 93 98 98 98 98 98 98 99 99 99 99 99 97 96 87 92 86 86 86 82 83 81 85 78 76 90 88
80 81 87 89 93 92 93 90 91 87 91 99 99 95 99 99 99 98 97 97 94 92 90 87 84 80 80 81 80 78 82 90
86 92 86 89 96 89 85 83 83 83 87 96 98 99 98 99 99 98 97 98 94 94 90 88 83 79 79 81 79 75 83 91
86 85 84 83 89 86 80 78 81 83 88 94 98 98 99 98 99 98 98 97 95 92 89 86 84 84 82 82 81 76 83 91
85 82 75 77 77 76 77 79 80 86 88 97 97 97 98 98 98 99 98 97 93 92 88 90 91 89 89 88 84 78 73 86
83 77 76 74 74 75 75 82 85 91 97 98 96 95 96 98 98 98 98 98 95 94 92 94 94 93 92 90 86 80 68 70
87 82 79 77 75 76 77 83 93 95 97 96 96 95 93 96 97 98 97 98 97 93 94 92 95 94 92 92 91 87 81 76
87 88 82 80 83 83 87 89 96 95 95 93 94 91 94 94 96 96 95 97 97 97 93 95 92 92 86 89 92 95 96 95
84 90 92 88 88 90 90 93 95 97 92 90 92 87 92 93 92 94 96 93 93 93 95 94 97 96 95 94 96 95 96 98
76 79 87 89 88 87 86 88 92 90 90 90 90 88 87 89 90 92 94 93 96 95 94 97 96 97 95 94 95 94 88 88
73 73 77 80 77 77 88 88 97 96 93 92 90 87 87 83 87 88 93 89 90 94 93 93 96 98 93 92 96 94 93 84
68 71 72 76 72 74 73 80 76 81 81 84 87 87 87 86 85 85 91 89 92 92 93 91 93 97 98 96 90 91 95 85
65 70 71 74 71 70 71 70 66 67 75 84 86 89 87 85 86 88 88 91 90 92 94 92 94 93 95 98 94 95 94 86
63 69 72 73 73 72 72 68 72 77 81 93 90 86 89 90 88 88 86 90 90 91 90 90 88 93 90 94 94 94 96 89
58 67 73 74 76 74 76 72 74 77 84 87 91 89 92 92 91 90 89 87 87 87 90 88 88 89 92 90 92 92 93 88
54 64 71 76 75 76 74 75 76 74 79 81 87 88 87 85 92 88 88 88 88 90 89 90 92 92 94 94 96 95 96 94

GFSFLT2_sfc_rhum_258.txt.gz
RH
59 60 76 96 95 95 95 94 94 94 94 94 94 94 94 93 92 90 90 91 89 85 81 78 81 81 83 85 85 76 40 40
54 50 56 66 74 95 95 95 95 95 95 95 96 94 95 94 93 92 90 89 88 84 78 78 80 81 81 88 88 78 39 37
48 48 52 56 58 73 93 95 95 95 90 94 88 46 59 71 70 91 88 88 86 81 78 80 82 82 80 81 88 34 39 35
45 50 52 56 45 65 61 60 56 54 54 62 42 45 42 38 66 90 87 86 83 80 79 80 77 29 37 65 33 38 38 38
43 51 55 54 48 51 46 48 47 47 52 52 43 45 46 41 48 52 53 73 42 50 49 32 32 29 29 33 37 43 36 35
44 46 55 58 44 46 44 42 45 45 47 54 50 47 51 42 36 36 40 36 34 34 31 36 40 37 39 42 40 34 35 36
46 46 55 53 53 44 46 46 47 47 48 54 47 42 49 42 38 34 32 32 35 34 33 37 39 44 44 41 41 39 42 36
48 49 54 53 50 53 51 49 48 49 49 51 54 44 50 44 42 36 32 33 30 33 34 36 37 39 45 45 43 38 42 44
50 52 54 57 53 51 50 48 47 50 49 57 56 51 54 48 41 38 33 34 39 37 41 39 41 41 44 46 42 41 40 44
49 48 56 59 54 51 47 46 48 48 49 54 60 56 53 52 41 40 35 37 38 36 37 38 43 44 44 42 41 40 42 44
51 54 57 60 58 52 53 54 50 47 50 51 63 57 53 48 38 40 43 38 38 36 37 40 46 44 42 42 45 46 51 41
52 56 61 66 61 59 52 50 52 49 52 52 63 55 55 52 39 42 45 38 39 38 42 42 44 44 37 43 56 66 60 57
54 57 64 66 61 59 55 55 54 55 58 58 60 57 56 57 41 45 49 41 42 47 44 52 49 46 45 59 64 65 70 78
53 54 57 64 58 55 52 50 52 59 69 65 60 61 58 54 50 47 52 42 51 55 53 44 48 51 50 57 70 63 59 65
51 52 54 58 58 51 51 52 65 75 80 73 60 61 60 57 54 48 53 48 49 59 60 51 49 53 54 48 55 53 59 60
51 51 50 55 56 51 58 54 67 66 71 74 58 62 61 58 54 54 56 52 53 58 55 54 51 55 55 47 48 44 55 63
52 52 52 54 58 53 54 58 55 52 55 67 71 60 63 58 59 60 60 55 58 61 62 64 52 49 52 53 57 53 51 46
51 53 53 54 59 62 63 66 56 52 56 58 62 58 61 64 61 63 64 61 61 60 64 65 59 55 46 49 51 55 57 50
51 53 53 55 62 64 65 67 65 61 56 57 59 61 61 67 66 68 64 64 60 59 65 66 67 60 63 50 47 49 47 49
50 50 51 52 61 66 68 68 59 55 54 50 53 56 58 64 68 66 65 62 62 63 61 63 67 69 68 63 50 49 48 50

GFSFLT2_sfc_rhum_264.txt.gz
RH
83 85 87 96 96 95 95 95 95 94 94 94 95 94 92 92 92 93 92 88 84 80 77 82 86 86 81 78 79 82 46 51
78 81 87 91 92 96 95 95 95 94 94 95 95 93 92 92 93 93 91 86 83 79 77 79 84 85 80 79 86 84 47 51
68 74 81 87 87 89 94 94 94 94 95 96 96 78 82 88 81 92 90 86 82 78 77 78 81 82 80 82 87 63 40 56
60 70 76 81 68 89 87 83 82 79 79 88 71 73 71 60 84 92 89 86 82 76 76 77 82 67 74 82 73 61 47 64
52 66 73 75 70 83 76 74 74 71 74 76 66 64 68 66 85 82 87 86 74 72 74 63 52 53 57 60 59 53 53 60
48 55 71 73 67 73 68 65 67 66 67 71 66 63 68 68 73 71 74 73 68 67 61 58 56 54 49 51 52 53 58 72
46 51 65 66 67 64 61 60 62 62 66 68 61 59 64 63 64 60 59 63 64 64 56 52 56 50 49 49 50 50 55 68
48 50 60 60 59 59 58 57 59 62 62 63 70 63 64 60 59 55 54 54 54 56 57 57 57 54 56 54 50 50 55 61
50 53 59 62 62 56 56 54 52 56 57 66 66 68 68 64 58 58 50 48 60 58 62 59 59 54 57 57 56 53 56 62
49 42 59 64 59 55 51 49 53 52 55 61 64 64 66 70 64 60 56 58 60 58 59 58 61 61 64 63 57 54 58 58
49 50 59 63 61 60 57 59 55 50 56 59 65 66 66 64 62 61 64 60 60 57 62 62 64 64 62 64 68 63 60 58
50 50 57 65 62 63 54 57 53 54 54 56 66 62 66 63 61 61 64 58 63 62 64 62 63 65 42 64 81 77 78 68
49 53 57 62 62 61 60 59 58 56 53 57 67 63 62 66 60 64 60 60 61 67 71 67 68 68 77 89 91 80 85 93
46 51 54 59 59 56 56 55 57 54 57 57 65 66 64 66 64 64 60 60 71 69 69 69 69 72 74 80 96 94 93 90
43 48 54 56 59 57 56 55 58 58 59 61 64 66 64 63 66 68 64 61 66 72 70 69 65 73 73 78 90 91 95 89
33 48 53 56 59 59 64 58 57 57 58 58 61 67 65 63 64 64 68 59 66 70 63 65 70 68 74 66 71 75 91 97
33 48 53 57 60 61 64 62 58 56 58 62 66 68 69 64 65 65 74 63 67 64 66 68 67 65 65 70 78 82 75 81
30 47 50 60 63 68 65 69 61 56 60 64 67 68 70 71 67 68 65 70 64 71 69 69 64 66 65 64 66 69 77 83
23 48 49 63 68 69 65 67 66 60 59 64 72 71 71 71 72 71 69 67 66 64 69 71 70 67 66 69 63 61 64 73
22 46 50 55 68 70 69 66 61 58 58 61 70 72 70 70 72 70 69 66 69 66 69 69 75 75 71 65 76 63 64 69

GFSFLT2_sfc_rhum_267.txt.gz
RH
84 80 90 96 96 95 94 94 95 94 94 95 94 94 94 94 94 93 89 85 80 79 83 85 85 82 79 86 88 85 68 75
86 79 85 90 94 96 95 95 95 94 95 96 94 93 95 95 95 92 88 84 80 77 78 83 84 81 81 86 89 77 64 76
94 82 89 91 92 94 95 94 94 94 94 95 96 95 96 95 95 92 87 84 80 76 76 80 84 81 80 82 85 63 70 80
91 94 93 89 81 91 96 90 91 91 93 96 93 96 96 84 94 93 88 85 80 76 75 77 83 76 75 78 69 61 72 82
83 89 94 92 85 88 94 94 94 94 96 93 90 86 89 96 99 97 97 89 86 78 76 71 64 66 70 69 68 64 77 79
76 82 88 87 91 86 89 86 88 89 91 89 88 81 87 96 95 98 97 95 88 79 76 66 62 56 57 57 55 63 81 85
69 76 84 81 91 85 82 78 80 82 87 82 84 76 79 85 87 88 88 89 85 79 72 63 61 57 59 52 55 61 77 79
65 71 77 77 83 78 76 71 74 78 82 71 82 76 72 77 79 76 80 76 79 73 70 62 60 59 61 54 57 62 68 81
64 66 72 72 75 72 68 65 67 75 76 72 75 73 66 81 71 70 69 68 71 66 65 64 65 58 60 62 61 60 69 74
75 62 69 65 68 63 60 60 66 70 68 70 68 76 61 73 63 66 64 62 65 61 71 69 66 67 67 65 63 64 70 71
77 71 64 62 59 57 62 60 64 59 66 68 65 78 63 61 59 62 65 59 65 59 71 65 71 72 68 67 66 68 64 62
57 55 61 60 63 59 59 59 64 55 65 65 62 73 70 71 70 56 73 65 67 68 65 71 69 72 53 68 81 82 82 71
53 53 62 63 73 72 57 70 58 59 62 64 66 66 76 67 76 63 67 66 62 67 69 64 74 81 91 93 95 93 95 93
52 50 63 61 58 57 56 54 58 62 56 69 66 62 68 68 70 74 60 68 69 67 72 76 70 87 87 96 97 96 97 95
53 50 60 60 58 51 66 55 72 58 70 67 68 64 67 70 65 77 64 64 66 62 69 67 62 82 76 87 98 97 99 95
38 53 52 59 59 56 62 63 61 63 59 62 70 66 64 63 67 65 71 59 73 63 60 65 72 59 92 73 81 92 98 99
29 34 67 58 60 59 58 58 59 56 59 62 68 71 66 62 70 63 82 64 68 68 65 64 75 55 81 88 88 94 94 97
49 32 44 70 71 61 61 58 59 57 55 63 72 75 70 68 64 67 62 74 66 73 65 60 61 74 57 83 78 82 92 93
53 50 48 68 73 74 63 62 60 58 59 65 64 78 76 71 68 70 64 71 66 68 69 63 62 65 78 70 78 76 82 82
61 59 56 54 62 70 70 63 61 58 60 59 62 66 76 71 71 70 69 63 75 66 70 69 64 64 64 78 79 69 75 83

GFSFLT2_sfc_rhum_273.txt.gz
RH
96 96 95 96 96 96 96 95 95 95 94 93 94 96 96 93 89 84 83 85 87 88 87 85 84 85 87 91 92 93 97 94
97 98 97 97 97 97 97 97 96 96 95 95 96 97 96 93 88 82 80 81 83 86 87 85 88 88 86 88 90 90 96 97
80 92 96 91 98 96 97 97 96 96 96 95 98 97 97 95 91 85 81 78 78 80 84 88 89 90 86 86 85 90 96 98
90 88 83 85 89 96 98 95 97 97 97 96 98 96 98 94 90 87 83 80 76 73 76 84 82 83 88 84 84 89 96 98
94 88 93 92 89 88 97 96 98 99 98 98 99 92 92 99 98 96 96 85 84 76 71 69 72 79 81 82 83 90 97 96
82 82 78 83 87 88 86 86 90 90 99 99 99 96 91 93 99 98 97 96 87 80 76 67 65 64 71 80 82 90 97 98
84 87 80 78 82 84 84 83 87 89 99 99 99 99 98 92 98 99 98 97 91 86 78 68 62 62 64 75 79 84 95 95
89 88 80 77 77 82 83 85 91 99 98 97 97 98 98 99 99 99 98 97 96 88 82 72 63 64 63 68 77 83 88 94
96 88 90 83 77 80 80 86 94 96 95 96 96 96 97 97 98 98 97 98 94 93 87 80 69 64 68 79 81 85 79 90
91 88 89 91 81 80 78 86 91 89 91 90 90 89 94 97 96 97 97 97 96 94 88 83 74 73 78 88 86 82 86 92
90 92 92 94 93 85 86 89 87 84 86 85 85 85 86 90 89 92 94 93 91 88 91 81 80 78 76 89 91 87 86 83
83 90 90 94 95 93 90 88 86 82 81 81 80 80 82 87 85 87 86 88 90 92 88 87 78 74 62 81 93 91 93 90
55 90 91 94 96 92 93 91 86 83 79 76 77 72 80 82 80 81 82 80 79 82 81 83 80 84 98 99 98 95 90 96
57 56 70 91 94 92 89 83 78 78 78 77 77 70 75 77 76 79 79 77 82 80 77 86 73 90 93 97 99 97 98 97
62 63 66 63 83 89 88 93 90 85 82 78 78 72 66 74 73 72 76 74 76 74 73 73 69 93 93 93 100 98 99 99
66 64 73 67 80 83 84 79 79 73 71 72 72 75 68 68 73 70 72 73 72 71 70 65 71 75 97 87 90 94 97 99
66 66 75 78 84 80 91 80 70 67 74 75 72 74 73 64 73 72 72 71 70 70 68 68 63 58 67 95 94 98 96 98
67 69 70 75 82 85 88 90 80 81 74 81 77 76 77 70 66 72 71 72 69 72 68 67 62 56 60 77 73 84 98 97
67 70 72 75 79 84 88 90 91 87 83 84 80 81 82 76 72 71 74 71 68 69 68 67 63 59 64 64 70 71 92 90
71 71 72 74 75 81 85 88 92 89 83 78 77 72 79 80 77 69 70 69 70 71 70 67 64 65 59 65 64 71 78 84

GFSFLT2_sfc_rhum_276.txt.gz
RH
97 97 95 95 96 96 96 96 95 95 94 94 96 96 92 89 88 87 87 88 87 85 88 90 90 91 92 94 94 93 92 76
87 98 98 98 97 96 96 96 96 95 95 96 97 96 93 88 86 86 88 89 88 87 87 86 88 90 92 93 94 94 95 93
86 88 97 99 98 97 96 96 96 96 95 96 99 99 97 91 86 85 86 88 88 87 87 89 90 90 91 92 91 94 95 95
96 87 89 98 91 98 99 97 98 98 98 97 99 93 99 93 89 84 83 84 86 87 87 88 85 87 87 86 90 92 94 94
84 78 94 86 85 99 98 97 98 99 98 99 99 86 90 99 98 96 94 83 83 82 84 82 84 83 85 85 89 92 94 92
84 83 80 80 90 95 88 88 86 88 99 99 96 86 85 91 99 97 95 92 83 78 76 77 79 82 83 84 88 91 93 93
86 90 87 83 97 92 92 81 83 82 96 98 98 88 83 83 97 98 97 95 88 83 77 70 71 72 80 81 84 89 93 92
92 87 84 81 89 92 88 80 79 82 87 98 98 97 88 86 91 99 98 96 92 86 80 73 68 69 71 83 82 87 92 94
95 89 88 90 88 86 80 78 79 85 88 97 96 97 98 96 99 99 98 98 93 90 85 81 71 66 69 77 84 88 88 92
89 87 84 90 86 86 77 79 84 88 96 97 95 95 96 98 98 98 98 98 96 94 89 84 78 73 78 88 89 88 88 93
65 94 86 91 90 91 90 82 85 89 92 93 93 92 92 94 95 96 98 98 97 92 92 83 80 76 76 90 92 90 89 86
60 62 89 90 94 94 93 94 87 86 90 88 89 87 89 90 89 93 93 96 97 95 92 90 80 76 63 80 93 92 93 93
65 61 68 88 97 96 97 95 91 89 88 85 86 84 86 89 85 90 89 88 88 90 91 88 88 86 93 98 98 93 93 96
67 66 66 73 84 92 92 92 93 87 84 85 86 83 83 83 82 86 87 84 89 88 85 91 86 92 92 96 97 94 98 95
68 69 73 72 79 86 94 94 94 88 90 86 84 82 78 79 80 82 86 82 85 84 81 78 78 91 92 89 99 95 97 98
69 70 75 69 82 80 89 88 88 83 84 84 81 83 78 75 76 80 83 82 80 82 78 75 80 74 94 83 91 91 96 97
72 69 72 76 82 79 91 95 84 84 91 91 85 86 83 73 76 79 79 83 80 81 80 76 71 63 77 94 94 96 94 95
73 68 70 75 82 86 88 91 93 93 81 85 90 87 89 85 73 77 76 78 80 80 77 78 71 67 73 73 70 75 97 94
71 67 70 72 80 84 88 90 91 93 93 92 86 89 86 87 85 81 80 76 76 77 79 77 75 72 68 70 69 68 80 90
73 73 67 70 72 80 84 88 83 85 89 93 91 80 84 82 89 79 76 77 76 78 76 76 74 74 72 68 65 68 72 81

GFSFLT2_sfc_rhum_279.txt.gz
RH
77 73 84 96 97 95 94 94 94 94 94 95 94 92 91 90 89 87 85 85 86 88 92 92 92 92 91 92 91 85 55 58
79 75 75 78 80 96 95 94 94 94 94 96 95 92 90 89 88 87 86 87 87 89 91 92 92 92 93 92 92 87 54 53
74 78 76 78 76 82 93 94 94 94 90 97 91 57 58 64 72 89 89 87 87 89 89 90 92 93 93 94 89 52 57 53
75 78 76 76 67 78 78 73 64 63 66 74 67 69 61 52 68 88 88 87 86 86 88 90 78 52 62 84 49 56 54 57
76 77 80 78 70 73 69 69 70 70 72 73 75 70 68 57 57 58 62 74 53 60 63 52 56 51 52 53 54 58 49 52
70 70 80 81 67 76 70 70 71 72 69 76 77 70 74 66 56 58 60 55 58 55 53 60 62 57 57 57 56 49 49 49
74 75 80 80 76 80 72 72 70 69 76 75 68 66 73 67 64 58 52 53 53 56 54 54 59 60 59 57 57 55 55 49
66 82 85 82 87 85 76 73 69 71 73 74 78 66 70 68 67 65 59 54 50 51 52 51 52 53 59 60 57 54 55 58
64 77 78 89 87 86 78 71 69 71 70 80 78 74 72 70 68 71 62 61 64 57 56 52 49 48 49 58 56 59 54 57
61 63 85 83 85 88 84 72 70 74 74 78 78 75 72 71 68 68 62 64 61 58 54 50 48 45 46 48 52 56 58 58
60 63 79 91 90 91 90 84 73 78 82 81 79 75 73 68 61 60 69 64 64 61 60 55 51 45 43 51 58 57 61 52
61 60 72 86 93 94 95 92 84 83 85 84 80 74 74 72 61 63 66 64 64 64 64 59 51 44 35 45 60 60 61 59
62 60 67 80 90 95 96 94 93 89 85 86 82 78 74 75 63 65 68 62 64 71 66 66 59 54 48 61 66 66 70 64
60 60 60 66 78 88 93 94 94 93 90 87 84 82 78 74 71 64 67 61 69 72 72 61 57 57 45 48 53 57 67 66
59 60 58 60 70 77 86 91 97 98 96 91 84 82 79 78 74 69 69 68 62 70 71 68 54 59 56 42 53 48 53 60
56 59 57 58 67 67 78 90 96 91 93 95 89 81 78 77 75 74 73 68 68 66 63 66 61 53 58 49 63 59 54 66
55 54 54 60 66 69 74 84 78 91 94 93 96 84 81 74 77 77 76 72 72 72 72 74 62 52 50 49 58 59 69 64
53 54 52 56 63 69 74 78 86 90 92 95 95 96 93 84 76 77 78 75 74 73 74 73 70 64 52 50 46 54 57 65
51 50 53 55 61 66 70 74 80 83 81 87 93 94 96 94 89 87 82 80 73 72 74 73 73 69 69 55 50 48 46 52
55 51 51 54 58 64 66 68 66 72 79 82 84 84 92 92 93 89 84 83 81 78 75 71 71 72 73 66 54 52 50 50

GFSFLT2_sfc_rhum_282.txt.gz
RH
55 55 76 95 94 94 93 94 94 93 94 93 92 91 91 90 89 86 85 86 89 92 92 92 91 89 90 89 87 82 41 46
52 51 54 61 65 95 94 94 94 94 94 94 93 91 90 88 86 83 85 86 88 92 92 91 91 91 91 90 88 78 37 38
52 51 55 58 56 68 89 92 93 94 88 94 85 42 56 62 74 85 86 86 88 91 91 92 92 92 92 91 88 30 35 33
51 55 54 56 44 61 56 51 45 46 48 57 38 41 40 40 60 87 86 86 89 89 90 90 85 42 51 80 33 35 33 35
57 61 59 56 48 49 47 44 41 42 49 51 47 46 44 39 42 44 48 73 45 58 59 43 43 39 39 39 38 38 31 33
60 59 63 71 47 48 45 43 45 43 44 54 51 50 48 39 34 38 44 41 42 41 39 43 50 46 46 45 42 33 31 33
52 61 76 67 65 52 49 49 47 46 44 51 44 44 50 43 39 38 39 38 41 42 39 45 48 48 47 46 44 41 39 33
52 60 74 80 75 71 60 54 48 52 48 44 55 45 47 46 44 42 38 37 38 40 40 41 43 43 48 47 46 42 41 42
49 54 67 89 80 67 72 77 54 52 49 56 55 52 49 50 44 44 39 39 45 44 45 44 40 41 44 46 44 47 42 43
48 48 58 73 91 87 82 70 85 61 54 53 62 56 50 52 41 43 41 41 43 43 42 41 41 40 41 38 41 42 47 46
49 50 55 65 80 89 90 87 84 82 65 58 63 61 55 50 39 38 45 42 44 43 42 42 39 38 37 38 40 39 44 41
48 46 53 58 63 82 89 94 95 88 84 68 68 63 62 57 43 40 41 41 41 43 47 42 40 36 30 32 39 42 42 45
44 46 50 49 47 65 85 97 92 94 88 77 78 71 66 65 54 44 44 41 43 47 49 52 45 40 38 36 35 46 51 46
41 43 45 46 46 49 70 88 92 94 90 90 83 82 81 69 68 53 50 44 49 52 56 48 44 42 42 33 36 37 42 48
39 41 42 45 52 45 48 64 82 91 96 95 89 83 81 80 72 67 56 53 45 54 56 57 44 42 48 32 34 34 28 35
36 38 40 41 50 50 58 55 69 75 91 93 91 93 89 86 81 73 69 60 57 51 49 53 53 41 41 42 39 31 35 35
38 34 36 43 49 53 52 57 57 71 76 87 90 93 90 88 87 88 82 72 65 64 56 59 47 46 36 40 44 37 47 43
40 35 32 40 45 51 56 60 59 64 73 76 84 90 93 96 93 92 88 81 75 70 68 62 60 51 43 38 37 40 39 39
38 36 33 36 43 46 53 56 56 56 64 72 81 86 89 93 97 97 86 79 76 73 76 74 65 60 61 47 39 38 33 32
41 37 33 34 40 43 47 53 48 48 53 63 68 70 77 75 89 95 91 83 78 83 80 78 75 72 70 63 48 44 38 36

GFSFLT2_sfc_rhum_285.txt.gz
RH
49 52 76 92 92 92 93 93 93 92 92 91 91 91 90 89 88 85 84 87 91 92 91 90 88 88 86 85 82 77 38 46
45 46 48 54 63 91 92 93 93 93 92 91 92 91 89 88 85 82 84 85 91 91 91 91 90 89 88 86 83 80 33 37
42 44 48 53 52 66 87 92 91 93 86 90 88 47 56 66 75 83 83 84 90 91 91 91 91 90 89 87 89 33 31 31
59 48 48 50 39 59 52 48 46 47 47 53 39 40 42 38 61 83 82 84 90 91 91 91 89 42 47 77 47 31 30 33
58 71 82 57 45 46 42 40 37 39 45 48 44 38 38 37 41 43 49 73 52 64 62 46 48 36 36 39 34 37 30 32
50 60 77 82 75 49 46 39 38 36 39 49 46 44 42 38 32 35 41 39 40 43 39 43 44 43 41 41 38 31 29 34
48 51 67 79 83 88 69 60 46 42 38 44 41 41 44 37 32 31 32 34 36 38 36 39 44 45 44 43 41 37 36 31
41 46 60 66 86 83 87 74 65 49 42 39 50 42 44 41 38 35 33 33 33 36 36 36 40 40 45 45 42 40 38 39
42 42 49 61 81 90 86 86 70 77 58 49 47 49 48 46 40 38 34 34 40 39 40 40 37 35 38 43 42 44 39 40
41 39 46 54 57 81 94 86 87 80 74 70 54 50 48 48 39 38 36 36 36 39 39 39 40 37 38 36 40 39 43 43
39 42 46 51 50 53 68 87 88 86 86 83 70 59 53 51 39 37 40 37 38 39 40 41 38 37 34 36 38 36 38 37
38 37 44 49 45 47 47 59 84 92 93 88 74 67 63 57 47 44 38 36 38 39 47 39 38 35 29 29 37 37 37 38
36 36 41 40 41 44 44 50 57 73 85 80 96 80 66 71 59 51 46 42 43 48 46 53 43 42 38 36 33 39 46 41
33 33 36 37 38 41 43 46 50 67 86 85 87 94 84 76 74 70 61 46 52 52 53 47 46 46 44 39 39 35 33 43
33 31 33 37 43 37 42 42 42 50 70 85 86 84 92 89 81 77 76 68 51 56 56 58 49 45 51 44 38 35 29 32
34 32 31 34 41 42 50 45 46 47 56 74 78 80 83 95 92 84 84 82 69 56 50 56 58 50 41 42 50 47 39 34
35 32 29 33 40 42 44 50 46 43 46 59 68 72 77 82 91 95 92 94 89 78 62 62 54 54 44 39 51 47 50 45
34 32 27 32 37 40 44 51 52 48 48 49 55 66 70 78 80 90 94 94 92 91 78 69 62 58 49 46 38 42 43 44
33 32 28 30 36 39 41 44 48 49 49 48 55 61 61 64 74 87 88 94 97 96 88 86 78 70 66 56 48 41 34 34
36 34 29 30 34 38 38 40 37 40 46 48 49 52 53 60 65 72 83 87 94 94 95 93 88 88 80 72 60 53 46 38

GFSFLT2_sfc_rhum_291.txt.gz
RH
90 93 91 92 92 92 93 93 92 92 92 92 92 92 91 90 87 86 89 92 91 89 88 87 84 84 84 86 88 89 68 70
70 75 88 94 94 92 93 93 92 92 92 91 92 91 90 88 85 85 90 92 91 90 90 89 87 84 85 87 90 86 71 72
62 73 78 86 90 88 93 92 91 91 91 91 98 96 93 88 86 84 88 91 91 91 90 89 87 86 86 86 88 75 68 75
58 67 77 76 73 86 91 88 96 95 89 93 96 92 91 77 84 85 85 90 90 90 90 91 92 90 82 81 76 72 67 75
60 60 67 78 87 90 93 82 87 88 80 83 86 75 82 82 93 89 95 92 97 95 95 94 89 87 72 68 66 68 76 72
64 71 64 70 90 86 84 96 88 72 79 73 78 82 79 83 88 85 92 92 95 96 94 83 80 69 67 56 61 63 80 79
65 63 75 77 78 87 84 86 97 96 85 76 76 77 81 70 74 78 77 82 83 87 83 75 73 68 62 62 56 64 75 78
51 52 55 65 84 77 92 89 93 97 96 93 79 75 79 83 66 70 69 73 70 71 71 69 69 70 66 64 63 59 70 78
53 44 53 60 65 76 86 96 97 94 94 92 92 92 84 75 80 73 68 64 68 68 61 72 61 64 70 59 67 62 64 72
49 51 58 57 56 56 71 82 91 95 94 92 92 91 91 94 80 78 75 66 67 70 67 68 72 70 72 74 70 69 65 72
48 55 61 58 55 62 65 66 72 97 94 93 89 92 92 95 97 87 79 80 73 71 70 72 71 72 70 72 74 73 69 58
49 50 61 58 56 60 56 59 62 92 94 90 87 91 90 93 97 98 96 92 80 70 74 74 70 70 54 51 68 74 73 75
50 49 55 51 52 56 58 65 62 61 70 87 91 86 91 91 96 97 98 97 92 80 79 81 77 72 74 73 73 72 71 70
49 50 52 50 53 52 62 64 61 62 64 75 86 86 85 87 91 91 95 97 95 91 94 90 89 82 64 80 80 71 73 73
47 50 49 55 57 55 52 54 58 56 62 61 75 82 81 90 89 87 91 94 97 95 97 95 92 89 87 73 85 82 72 70
50 49 48 49 57 62 64 62 60 64 70 66 62 76 79 77 84 89 91 93 94 96 96 96 96 91 88 86 74 69 74 76
55 48 50 55 58 61 68 64 66 64 68 71 65 70 76 75 79 85 87 93 89 93 93 96 97 95 94 91 90 80 79 78
54 50 50 55 58 60 66 66 64 63 64 69 70 72 69 75 72 86 84 85 87 91 91 93 96 96 96 93 93 94 88 90
46 50 50 55 57 58 64 65 64 68 68 69 73 73 68 69 71 86 80 85 85 90 90 91 94 96 97 94 91 94 94 88
51 50 48 52 55 58 62 61 69 68 71 74 74 75 71 73 68 81 81 80 84 89 90 89 90 95 95 98 96 92 94 95

GFSFLT2_sfc_rhum_297.txt.gz
RH
74 84 92 92 93 93 93 93 94 94 93 92 92 92 90 86 87 90 90 88 86 85 84 85 86 87 88 91 87 86 84 84
60 64 77 96 96 93 93 92 92 93 93 94 94 93 92 87 86 89 91 90 87 85 86 87 88 89 90 89 88 85 84 86
64 58 64 73 76 85 94 92 93 93 93 93 96 97 96 92 86 88 89 89 89 87 87 88 91 90 90 88 82 83 86 86
57 64 70 66 68 80 88 91 98 96 94 94 98 97 97 89 91 88 88 89 88 88 88 90 93 95 89 80 77 76 86 87
50 59 62 81 64 74 84 86 94 92 94 95 94 90 98 98 98 95 96 92 98 95 95 96 92 92 86 84 72 76 89 88
49 58 53 59 58 72 85 93 87 90 85 88 95 91 86 89 98 97 97 97 97 97 98 94 91 85 80 81 77 72 93 91
48 52 58 57 58 71 86 87 90 90 92 88 90 90 92 90 93 97 97 96 97 96 97 94 88 78 74 80 78 72 86 88
47 49 54 57 64 73 82 87 88 87 89 91 90 92 91 93 94 90 84 84 93 96 92 91 89 86 80 77 78 76 82 87
54 46 57 60 66 71 82 85 93 95 90 85 88 89 94 95 97 95 89 84 86 90 92 94 91 78 79 73 79 85 88 87
59 52 60 61 65 72 71 74 90 92 95 92 87 88 85 93 95 97 97 91 84 88 88 88 87 77 72 81 79 90 82 82
58 62 63 64 66 71 75 77 75 90 90 89 87 85 90 92 91 93 93 98 98 92 88 89 87 79 72 73 77 79 90 73
57 59 64 63 68 67 69 71 70 71 85 83 85 86 86 91 91 91 93 94 95 99 98 97 94 93 74 69 85 91 93 92
58 59 63 62 56 69 66 67 77 67 70 79 82 85 84 87 89 88 90 94 92 93 96 99 95 96 94 83 78 79 81 89
58 61 63 66 67 69 69 70 73 75 79 75 82 84 86 77 89 86 89 92 91 93 92 95 95 94 95 95 92 77 75 79
57 62 62 66 66 67 68 69 71 72 75 73 80 83 82 84 88 87 89 94 96 94 90 93 96 93 93 92 96 91 85 72
61 60 60 61 67 67 70 76 78 77 82 83 80 83 82 82 88 88 90 95 93 92 89 92 91 93 91 91 92 90 93 87
66 62 61 64 68 68 74 73 78 79 80 82 83 84 82 83 87 90 92 95 90 93 92 92 92 93 94 95 96 97 97 99
64 61 61 62 66 67 70 73 75 77 79 84 85 85 83 83 82 92 92 95 91 90 92 92 90 92 92 93 95 97 96 98
59 57 56 59 62 64 66 71 72 75 79 84 83 85 84 83 85 92 91 93 90 90 91 92 89 94 95 94 92 94 94 95
58 56 55 57 60 62 64 68 73 74 77 80 82 83 84 82 84 88 88 90 91 92 93 89 86 93 95 95 94 90 91 94

GFSFLT2_sfc_rhum_300.txt.gz
RH
60 66 82 90 94 94 94 93 94 94 93 92 92 91 88 84 85 89 87 86 86 83 84 85 86 86 86 88 88 84 82 86
58 60 66 81 88 90 94 93 92 92 93 94 95 93 91 85 84 87 87 87 86 85 85 86 87 88 87 86 87 87 81 80
61 58 66 68 76 84 92 95 95 93 91 91 98 98 97 95 89 84 87 88 87 85 87 89 92 88 88 85 84 83 82 82
67 71 67 71 69 81 91 90 90 92 95 98 97 96 96 93 94 92 85 88 88 89 89 89 91 90 84 81 77 78 85 86
48 53 63 72 76 80 81 80 85 83 88 92 98 92 94 93 95 96 96 89 98 95 95 95 92 88 83 81 75 74 82 86
48 53 60 64 69 80 85 91 88 89 87 86 90 91 97 98 97 96 97 96 96 96 97 95 91 86 82 81 80 76 82 87
54 58 64 66 69 77 85 83 85 86 87 85 92 93 94 96 97 96 95 95 95 94 94 92 91 85 79 79 79 79 78 86
56 58 64 66 71 78 83 89 94 86 83 86 90 93 94 90 91 93 92 86 92 94 92 90 90 88 85 81 79 79 79 85
61 53 66 68 74 78 82 83 87 92 91 87 88 92 91 92 95 95 94 94 90 91 90 93 92 78 77 73 78 87 85 84
62 57 65 67 71 75 75 77 92 91 90 89 87 86 85 92 91 95 95 96 98 96 94 90 88 90 88 85 86 90 80 84
61 64 66 66 66 72 77 78 78 92 94 88 89 85 85 92 92 92 94 92 93 95 98 99 96 93 84 81 84 78 90 74
60 63 66 65 68 68 71 74 75 79 84 83 88 87 86 91 89 90 92 93 93 94 93 95 98 98 88 76 82 87 90 92
63 63 67 68 68 74 74 77 79 73 76 83 86 87 88 90 89 89 92 96 92 89 93 93 96 94 98 80 83 80 84 85
62 64 67 68 70 72 74 76 74 79 82 81 85 87 88 80 90 90 94 87 83 92 93 91 94 93 96 95 91 81 79 81
62 66 67 67 66 69 71 74 76 80 82 78 83 86 86 89 89 91 95 92 93 96 95 95 94 90 91 98 96 95 88 78
65 62 64 65 67 68 72 80 79 80 86 86 81 84 85 86 91 92 95 96 92 94 90 94 94 94 88 85 94 98 98 86
69 65 62 65 67 70 73 73 81 81 83 82 83 83 83 85 89 93 94 98 94 94 94 95 92 96 92 93 91 93 94 97
69 66 61 64 67 67 70 70 73 74 79 83 85 85 83 86 85 92 92 96 93 93 94 92 91 94 94 93 93 94 95 96
64 63 59 62 65 66 67 69 71 70 75 81 81 84 84 86 87 92 91 94 91 92 92 91 91 94 96 93 91 93 88 90
62 62 60 61 63 65 67 70 73 73 75 77 79 81 82 82 85 86 88 91 91 91 92 90 90 94 95 95 94 91 86 92

GFSFLT2_sfc_rhum_306.txt.gz
RH
57 59 69 88 92 94 96 93 91 90 90 91 97 90 89 85 79 82 82 82 80 79 80 82 80 81 84 87 87 80 44 41
54 57 63 74 79 87 88 89 89 90 91 92 91 91 85 84 81 84 80 82 82 82 82 83 82 78 79 84 86 81 41 37
54 57 61 66 70 71 79 80 82 81 78 85 74 43 48 48 82 86 84 79 82 83 84 85 86 84 82 81 86 39 37 35
49 54 56 55 51 69 67 60 59 66 68 71 63 60 58 58 66 82 82 81 78 82 82 84 82 32 35 70 42 38 38 38
39 50 56 52 52 46 44 48 51 54 71 71 70 66 64 56 58 45 49 69 41 49 48 35 38 36 30 37 38 40 33 33
37 42 51 54 40 41 41 41 44 44 49 74 79 85 73 66 73 72 62 47 53 46 38 47 48 42 41 43 44 40 35 34
36 41 48 46 46 40 42 40 42 44 44 53 51 80 83 83 74 75 73 66 63 56 47 45 45 42 43 43 43 44 44 39
34 39 45 46 45 49 43 42 38 38 41 49 53 47 55 48 55 60 90 79 76 78 66 55 49 45 45 45 45 46 43 45
31 33 41 43 42 39 39 38 36 38 37 50 53 49 51 50 46 50 72 65 69 79 76 71 60 53 54 53 49 50 43 41
33 29 38 41 41 38 34 36 36 37 36 41 53 51 50 46 44 52 72 58 49 51 62 73 80 82 72 68 62 59 58 53
33 34 36 38 41 37 39 41 34 35 37 39 51 50 51 42 43 51 53 45 47 49 51 57 80 78 69 63 69 60 57 54
33 30 36 37 33 31 28 30 30 32 36 42 52 48 49 45 40 46 40 40 42 46 53 51 74 57 49 49 55 61 52 53
32 31 34 27 23 24 25 29 32 32 32 43 46 49 50 49 42 42 41 40 48 48 45 44 40 45 46 46 44 46 51 44
28 28 30 28 24 26 28 29 30 29 32 37 44 46 50 42 48 45 48 38 46 47 47 40 37 43 66 63 48 43 63 46
29 30 30 32 32 22 22 22 21 24 27 28 35 41 45 49 48 48 49 43 41 45 46 46 40 36 62 56 66 67 54 41
31 31 31 28 36 29 34 25 25 29 28 30 29 37 40 45 48 48 50 43 49 43 40 44 48 41 40 48 72 78 88 56
33 33 34 34 38 38 31 33 27 26 28 35 35 35 38 39 44 47 50 43 50 51 50 47 39 44 43 52 59 56 68 73
36 34 30 33 37 39 41 42 39 34 35 33 31 30 31 37 40 45 46 48 49 46 50 49 46 45 43 45 55 61 56 57
33 32 30 31 37 39 40 41 42 41 36 31 37 33 33 36 42 45 40 45 48 50 50 50 47 47 51 43 42 47 48 44
29 28 28 27 31 35 38 41 35 32 33 35 36 34 34 41 43 42 42 41 43 48 44 44 49 49 53 50 42 40 40 41

GFSFLT2_sfc_rhum_309.txt.gz
RH
57 68 81 88 87 87 89 89 89 90 89 88 91 87 81 75 76 78 78 79 79 78 80 82 78 76 76 78 79 82 56 35
52 59 64 75 74 84 84 84 84 85 86 87 87 86 78 78 76 82 76 76 77 77 78 78 79 80 79 82 83 83 53 30
46 47 56 58 62 67 78 74 77 76 73 79 68 44 41 46 80 78 79 77 77 77 78 78 81 83 82 80 82 45 43 33
37 46 49 44 40 50 58 53 53 54 58 67 60 70 62 58 64 75 78 80 80 79 80 83 82 30 42 75 44 43 33 32
29 40 46 44 40 35 35 38 45 49 56 59 76 66 69 61 59 58 67 72 47 66 58 46 34 35 28 30 34 36 30 30
30 34 42 45 31 31 32 32 35 36 41 53 55 77 63 71 70 66 67 58 61 66 39 39 40 40 37 36 40 39 31 41
31 35 42 40 41 34 36 33 34 36 39 46 44 41 51 71 70 71 71 79 73 71 64 58 44 38 37 37 39 38 37 40
29 34 38 38 37 41 36 35 32 32 36 44 47 41 47 38 40 43 50 62 71 72 76 67 64 56 39 39 38 39 43 57
27 28 36 38 37 34 33 33 31 32 33 45 47 44 46 43 38 41 43 43 46 44 55 62 63 61 67 58 54 59 47 46
29 25 33 36 37 34 30 30 31 32 32 37 47 46 45 39 36 41 39 36 36 38 41 43 55 68 65 62 56 59 61 57
29 32 33 35 37 31 33 35 29 31 34 37 47 45 45 40 36 39 38 34 36 38 39 42 45 45 40 42 60 53 55 51
29 28 31 30 27 26 24 26 27 28 32 38 46 44 45 44 36 41 37 34 36 39 44 37 36 37 32 33 42 50 57 64
27 27 29 24 21 22 22 22 26 25 27 36 40 43 45 44 39 39 40 36 43 44 41 42 33 37 39 37 36 40 60 71
25 26 27 26 21 23 25 27 22 22 25 30 36 38 43 37 44 40 43 36 43 45 45 38 33 34 46 40 38 41 50 51
25 26 27 29 30 22 23 21 22 24 25 27 29 34 37 42 42 43 46 40 40 44 44 44 39 32 42 52 50 53 54 38
25 27 26 26 32 28 32 25 25 26 28 30 29 32 34 36 41 42 46 41 47 43 38 44 40 37 34 33 49 56 69 53
29 26 26 27 32 33 30 33 28 26 28 34 34 33 32 32 38 43 45 39 45 49 50 48 39 39 34 36 41 38 60 46
30 27 24 26 29 33 36 38 36 33 34 31 30 30 31 35 37 43 44 43 44 45 49 48 48 45 40 37 34 38 38 40
28 27 25 25 29 32 34 36 38 38 32 29 33 31 31 35 42 44 40 44 43 44 49 49 45 48 51 42 36 34 37 36
25 24 25 24 26 29 32 34 30 31 31 31 32 33 33 39 40 42 43 42 44 46 43 43 48 48 54 50 43 37 33 35